Other Public Products
Issued by NWS Grand Forks, ND

Home | Current Version | Previous Version | Text Only | Print | Product List | Glossary On
Versions: 1 2 3 4 5 6 7 8 9 10 11 12 13 14 15 16 17 18 19 20 21 22 23 24 25 26 27 28 29 30 31 32 33 34 35 36 37 38 39 40 41 42 43 44 45 46 47 48 49 50
000
FPUS83 KFGF 011331
OPUFGF
PRAIRIE TO PINES WEATHER ROUNDUP
NATIONAL WEATHER SERVICE EASTERN NORTH DAKOTA/GRAND FORKS ND
800 AM CDT MON SEP 01 2014

 **SATELLITE DATA USED TO AUGMENT SKY COVER AT AUTOMATED STATIONS**
 *****  WEATHER ACROSS EASTERN NORTH DAKOTA  *****

CITY           SKY/WX    TMP DP  RH WIND       PRES   REMARKS
GRAND FORKS    MOSUNNY   54  53  97 CALM      29.69R
GRAND FORKS AF MOSUNNY   58  57  99 W7        29.70R
GRAND CITY NWS   N/A     57 N/A N/A MISG        N/A
BUXTON         NOT AVBL
DEVILS LAKE    SUNNY     57  50  77 W7        29.71R
FARGO          SUNNY     55  52  89 CALM      29.71R
WAHPETON ARPT  SUNNY     57  54  88 NW6       29.72S
$$

 *****  WEATHER ACROSS CENTRAL AND WESTERN NORTH DAKOTA  *****

CITY           SKY/WX    TMP DP  RH WIND       PRES   REMARKS
JAMESTOWN      SUNNY     57  54  89 W7        29.75R
BISMARCK       CLEAR     52  50  93 W9        29.79R
MINOT          CLOUDY    53  49  86 W16       29.76R
MINOT AFB      MOCLDY    54  54  99 NW15      29.75R
GARRISON         N/A     51  50  96 W7        29.77R
WILLISTON      CLEAR     49  46  90 NW5       29.83R
DICKINSON      CLEAR     50  46  86 W12       29.81R
HETTINGER      PTCLDY    50  46  86 W7        29.85R
$$

 *****  OTHER OBSERVATIONS NORTHEAST NORTH DAKOTA  *****

CITY           SKY/WX    TMP DP  RH WIND       PRES   REMARKS
WALHALLA         N/A     57  57 100 W5        29.68R
LANGDON        FAIR      52  50  93 SW5       29.70S
CAVALIER       FAIR      55  54  94 W3        29.67S
GRAFTON        FAIR      55  55 100 SW5       29.69R
CANDO          FAIR      54  54 100 W6        29.71F
FORT TOTTEN      N/A     55  53  94 W2        29.95S
ROLLA          FAIR      55  55 100 NW3       29.73R
RUGBY          FAIR      50  50 100 W6        29.73R
 ***** THE ABOVE OBSERVATIONS ARE NON NWS ARE NOT QUALITY
        CONTROLLED AND MAY MIS-REPORT RAIN FOR SNOW...
$$

 *****  OTHER OBSERVATIONS SOUTHEAST NORTH DAKOTA *****

CITY           SKY/WX    TMP DP  RH WIND       PRES   REMARKS
COOPERSTOWN    NOT AVBL
VALLEY CITY    FAIR      57  57 100 W9        29.74S
OAKES            N/A     57  57 100 W3        29.75S
GWINNER        SUNNY     61  55  82 NW8       29.75S
BUFFALO          N/A     56  54  93 CALM        N/A
WYNDMERE       NOT AVBL
 ***** THE ABOVE OBSERVATIONS ARE NON NWS ARE NOT QUALITY
       CONTROLLED AND MAY MIS-REPORT RAIN FOR SNOW...
$$

  *****  WEATHER ACROSS NORTHERN MINNESOTA  *****

CITY           SKY/WX    TMP DP  RH WIND       PRES   REMARKS
FLAG ISLAND    CLOUDY    61  55  82 NW18G25   29.61R
WARROAD        PTSUNNY   57  54  88 W9        29.66R
ROSEAU         PTSUNNY   57  54  88 W8        29.66R
HALLOCK        MOSUNNY   54  54 100 S5        29.68R
THF RVR FALLS  PTSUNNY   57  54  88 NW9       29.70R
HALSTAD          N/A     57  55  94 W3          N/A
FOSSTON        CLOUDY    55  55 100 CALM      29.71R
BAUDETTE       CLOUDY    59  56  89 VRB3      29.63R
WASKISH        CLOUDY    61  57  88 W10G16    29.65S
CROOKSTON      CLOUDY    54  54 100 CALM      29.71R FOG
$$
  *****  WEATHER ACROSS CENTRAL AND WEST MINNESOTA  *****

CITY           SKY/WX    TMP DP  RH WIND       PRES   REMARKS
BEMIDJI        CLOUDY    58  57  94 W12       29.68R
PARK RAPIDS    CLOUDY    60  58  92 NW13      29.68R
WADENA         MOSUNNY   57  57 100 W3        29.69S
DETROIT LAKES  FOG       55  55 100 NW7       29.73R VSB 1/4
MOORHEAD       MOSUNNY   57  57 100 W3        29.72S
FERGUS FALLS   SUNNY     55  55 100 N7        29.72R
ELBOW LAKE     FAIR      57  56  94 NW7       29.72R
MORRIS MN      SUNNY     61  57  88 NW10      29.71R
STAPLES        PTSUNNY   61  57  88 NW8       29.68S
WHEATON        SUNNY     59  55  88 NW7       29.74S
$$
  *****  WEATHER ELSEWHERE ACROSS MINNESOTA  *****

CITY           SKY/WX    TMP DP  RH WIND       PRES   REMARKS
DULUTH         CLOUDY    62  58  86 NW10      29.62R
INTRNTL FALLS  CLOUDY    59  57  93 NW8       29.60R
ELY            CLOUDY    57  55  94 W6        29.60R FOG
CLOQUET        CLOUDY    63  61  94 W6        29.62F
BRAINERD       PTSUNNY   60  58  92 NW8       29.66F
HIBBING        CLOUDY    61  56  83 NW12      29.61F
ALEXANDRIA     MOSUNNY   61  58  90 NW8       29.71R
SAINT CLOUD    CLOUDY    65  62  90 NW7       29.64F
MINNEAPOLIS    PTSUNNY   66  64  93 CALM      29.65R
$$

  *****  WEATHER ACROSS SOUTH DAKOTA  *****

CITY           SKY/WX    TMP DP  RH WIND       PRES   REMARKS
SIOUX FALLS    MOSUNNY   63  60  90 W7        29.76R
BROOKINGS      NOT AVBL
WATERTOWN      MOSUNNY   60  59  96 NW3       29.75R FOG
HURON          SUNNY     57  55  93 NW10      29.78R
SISSETON         N/A     60  57  89 NW7       29.72R
ABERDEEN       SUNNY     57  55  93 W7        29.77S
MITCHELL       SUNNY     60  58  92 SW7       29.78R
PIERRE         CLEAR     53  52  96 SW9       29.83R
MOBRIDGE       CLEAR     52  51  97 CALM      29.79S
RAPID CITY     PTCLDY    54  47  77 NW8       29.92R
$$

  *****  SOME WEATHER IN NEARBY STATES *****

CITY           SKY/WX    TMP DP  RH WIND       PRES   REMARKS
GLASGOW MT     PTCLDY    49  47  93 CALM      29.86R
GREAT FALLS MT MOCLDY    49  39  68 SW8       29.96R
CHEYENNE WY    CLEAR     48  41  76 W10       30.09R
SCOTTSBLUFF NE PTCLDY    51  49  92 CALM      30.01R
OMAHA NE       PTSUNNY   67  62  84 W7        29.80R
DES MOINES IA  CLOUDY    70  64  81 SW14      29.75R
DAVENPORT IA   LGT RAIN  66  63  90 W9        29.76F
CHICAGO IL     CLOUDY    74  68  81 S14       29.74F
EAU CLAIRE WI  TSTM      64  64 100 SW10G17   29.66S FOG
LA CROSSE WI   RAIN      66  63  90 S10       29.67F FOG
$$

  *****  SOME NATIONAL WEATHER *****

CITY           SKY/WX    TMP DP  RH WIND       PRES   REMARKS
LA GUARDIA NY  PTSUNNY   79  71  76 W3        30.00S
RALEIGH NC     PTSUNNY   77  72  84 SW5       30.12S
ATLANTA GA     PTSUNNY   76  71  85 CALM      30.15R
NEW ORLEANS LA PTSUNNY   83  76  79 SE7       30.04R HX  91
OKLAHOMA CITY  PTSUNNY   74  69  85 SE10      29.88R
ALBUQUERQUE NM PTCLDY    63  40  42 SE9       30.11R
SALT LAKE CITY CLEAR     58  38  47 E7        30.03R
LOS ANGELES CA CLOUDY    71  64  78 E6        29.81S
BOISE ID       CLEAR     49  41  74 S3        30.06R
SEATTLE WA     MOCLDY    55  52  88 S6        30.09R
$$

*** WEATHER ACROSS MANITOBA...SASKATCHEWAN AND ONTARIO ***
                ***ONTARIO***

CITY           SKY/WX    TMP DP  RH WIND       PRES   REMARKS
GERALDTON      LGT RAIN  61  61 100 S12       29.55R
THUNDER BAY    LGT RAIN  63  63 100 W6        29.50R
SIOUX LOOKOUT  LGT RAIN  59  57  94 NW10      29.52R FOG
TORONTO        DRZL/FOG  68  66  94 SE3       29.95F VSB 3/4
BIG TROUT LK   LGT RAIN  54  54 100 NE6       29.47S VSB 1/4
PICKLE LAKE    CLOUDY    59  57  94 NW7       29.45S
DRYDEN         CLOUDY    57  55  94 W10G17    29.55R
KENORA         DRIZZLE   57  55  94 W7        29.60R
$$
                *** MANITOBA***

CITY           SKY/WX    TMP DP  RH WIND       PRES   REMARKS
BRANDON        PTCLDY    52  50  93 W9        29.70R
DAUPHIN        CLEAR     54  50  87 W13G30    29.66S
ISLAND LAKE    CLOUDY    57  55  94 CALM      29.56R
PILOT MOUND      N/A     50  48  93 W3          N/A
THE PAS        PTCLDY    54  50  87 W7        29.60
THOMPSON       MOSUNNY   50  50 100 NW7       29.54S
WINNIPEG       MOSUNNY   52  52 100 W5        29.66R
LYNN LAKE      CLEAR     46  45  93 MISG      29.57S
CHURCHILL      CLOUDY    52  52 100 W6        29.52R FOG
GILLAM         CLOUDY    55  55 100 N7        29.53S FOG
$$
                ***SASKATCHEWAN***

CITY           SKY/WX    TMP DP  RH WIND       PRES   REMARKS
ESTEVAN        PTCLDY    50  48  93 W6        29.80R
KINDERSLEY     PTCLDY    41  37  87 SW5       29.83R
LLOYDMINSTER   PTCLDY    43  41  93 W12       29.77S
PRINCE ALBERT  MOCLDY    45  45 100 W6        29.72
REGINA         CLEAR     46  45  93 W5        29.80
YORKTON        CLEAR     52  48  87 W8        29.70F


USA.gov is the U.S. government's official web portal to all federal, state and local government web resources and services.